Regional Weather Roundup
Issued by NWS

Home | Current Version | Previous Version | Graphics & Text | Print | Product List | Glossary On
Versions: 1 2 3 4 5 6 7 8 9 10 11 12 13 14 15 16 17 18 19 20 21 22 23 24 25 26 27 28 29 30 31 32 33 34 35 36 37 38 39 40 41 42 43 44 45 46 47 48 49 50
000
ASUS45 KABQ 210401
RWRNM
WEATHER ROUNDUP FOR NEW MEXICO
NATIONAL WEATHER SERVICE ALBUQUERQUE NM
900 PM MST SAT DEC 20 2014

NOTE: "FAIR" MEANS FEW OR NO CLOUDS BELOW 12,000 FEET AGL WITH NO
       SIGNIFICANT WEATHER OR OBSTRUCTIONS TO VISION.

      THIS PRODUCT IS RELEASED AS TWO VERSIONS.  ONE VERSION NEAR
      THE TOP OF THE HOUR CONTAINING PRELIMINARY DATA FROM ALBUQUERQUE
      AND OTHER STATIONS.  A FINAL VERSION WITH ADDITIONAL DATA IS
      ISSUED ABOUT 10 MINUTES AFTER THE HOUR.

NMZ501-503-504-510>518-210500-
NORTHWEST PLATEAU/NORTHCENTRAL MOUNTAINS

CITY           SKY/WX    TMP DP  RH WIND       PRES   REMARKS
FARMINGTON     CLOUDY    34  28  79 W6        30.12R WCI  29
SANTA FE       CLOUDY    28  22  78 N6        30.06F WCI  22
TAOS           CLOUDY    30  21  69 SW9       30.07F WCI  22

$$
NMZ402-403-502-505>509-210500-
WESTCENTRAL MOUNTAINS/SOUTHWEST MOUNTAINS

CITY           SKY/WX    TMP DP  RH WIND       PRES   REMARKS
GALLUP         CLOUDY    34  27  75 CALM      30.13F
GRANTS         CLOUDY    28  24  83 NW6       30.13S WCI  22
SILVER CITY    PTCLDY    37  28  70 N8        30.14S WCI  31

$$
NMZ407-409-411-412-210500-
SOUTHERN DESERTS

CITY           SKY/WX    TMP DP  RH WIND       PRES   REMARKS
DEMING         MOCLDY    40  32  73 SW9       30.11S WCI  34
HOLLOMAN AFB   PTCLDY    33  26  75 NE8       30.10F WCI  26
ALAMOGORDO     PTCLDY    36  23  60 E3        30.11F
T OR C         CLOUDY    38  23  55 NW7       30.09F WCI  33

$$
NMZ519>523-210500-
CENTRAL VALLEYS/CENTRAL HIGHLANDS

CITY           SKY/WX    TMP DP  RH WIND       PRES   REMARKS
ALBUQUERQUE    MOCLDY    37  26  64 SW3       30.09F
DOUBLE EAGLE   CLEAR    N/A N/A N/A W6        30.09F
MORIARTY ARPT  FAIR      27  20  75 CALM      30.07F
CLINES CORNERS CLOUDY    31  21  66 NW12      30.02F WCI  22
BELEN          FAIR      32  24  71 CALM      30.10S
SOCORRO        NOT AVBL

$$
NMZ524>526-539-540-210500-
SOUTHCENTRAL MOUNTAINS

CITY           SKY/WX    TMP DP  RH WIND       PRES   REMARKS
RUIDOSO        PTCLDY    36  14  41 NW10      30.11S WCI  28

$$
NMZ527>531-210500-
NORTHEAST HIGHLANDS/NORTHEAST PLAINS

CITY           SKY/WX    TMP DP  RH WIND       PRES   REMARKS
LAS VEGAS      CLOUDY    32  16  51 SE8       29.98F WCI  25
RATON          CLOUDY    29  13  51 N5        29.96F WCI  24
CLAYTON        MOCLDY    34  23  64 W8        29.94F WCI  27

$$
NMZ532>537-210500-
EASTCENTRAL PLAINS

CITY           SKY/WX    TMP DP  RH WIND       PRES   REMARKS
TUCUMCARI      PTCLDY    32  22  66 CALM      29.96F
CANNON AFB     PTCLDY    33  17  51 SW6       29.99F WCI  27
CLOVIS AIRPORT PTCLDY    30  18  59 SW7       29.99S WCI  23

$$
NMZ028-029-538-210500-
SOUTHEAST PLAINS

CITY           SKY/WX    TMP DP  RH WIND       PRES   REMARKS
ROSWELL        CLEAR     37  25  61 W8        30.04R WCI  31
ARTESIA        CLEAR     34  25  69 W10       30.05R WCI  26
CARLSBAD       CLEAR     44  24  45 W13       30.03R
HOBBS          CLEAR     39  27  60 CALM      30.05S


$$



USA.gov is the U.S. government's official web portal to all federal, state and local government web resources and services.